{"data":{"norad_id":60447,"epoch":"2026-09-21T16:25:00.897888Z","epoch_age_seconds":86127,"freshness":"FRESH","line1":"1 60447U 24144Y   26264.68403817 -.00000278  00000+0  29026-5 0  9994","line2":"2 60447  53.1593  22.0112 0000955  57.7494 302.3601 15.34395159119384","mean_motion":15.34395159,"eccentricity":9.55e-5,"inclination_deg":53.1593,"raan_deg":22.0112,"arg_perigee_deg":57.7494,"mean_anomaly_deg":302.3601,"bstar":2.9026e-6,"rev_number":11938,"period_min":93.848054169988,"perigee_km":462.06432710009,"apogee_km":463.37093033417,"semimajor_km":6840.8546287171,"source":"CELESTRAK","updated_at":"2026-09-22T09:00:49.238095Z"}}